Weather History for K3A1 - November, 2012

Change the Weather History Date:

Sunday, November 11, 2012

  Actual Average (KHSV) Record (KHSV)
Temperature  
Mean Temperature 58 °F 54 °F  
Max Temperature 69 °F 66 °F 81 °F (1945)
Min Temperature 48 °F 43 °F 22 °F (1946)
Degree Days  
Heating Degree Days 6 11  
Month to date heating degree days 104  
Since 1 July heating degree days 255  
Cooling Degree Days 0 0  
Month to date cooling degree days 7  
Year to date cooling degree days 1947  
Growing Degree Days 8 (Base 50)    
Moisture  
Dew Point 45 °F    
Average Humidity 59    
Maximum Humidity 68    
Minimum Humidity 41    
Precipitation  
Precipitation 0.00 in 0.14 in 1.77 in (1935)
Month to date precipitation 1.58  
Year to date precipitation 45.21  
Snow  
Snow 0.00 in - - ()
Month to date snowfall  
Since 1 July snowfall  
Since 1 September snowfall  
Snow Depth -    
Sea Level Pressure  
Sea Level Pressure 30.25 in    
Wind  
Wind Speed 8 mph (SE)    
Max Wind Speed 16 mph    
Max Gust Speed 24 mph    
Visibility 10 miles    
Events      
T = Trace of Precipitation, MM = Missing Value Source: NWS Daily Summary

Daily Weather History Graph

Daily Weather History Graph

Search for Another Location

Airport or City:

Trip Planner

Search our weather history database for the weather conditions in past years. The results will help you decide how hot, cold, wet, or windy it might be!

Date:

Astronomy

Nov. 11, 2012 Rise Set
Actual Time 6:17 AM CST 4:45 PM CST
Civil Twilight 5:50 AM CST 5:12 PM CST
Nautical Twilight 5:20 AM CST 5:42 PM CST
Astronomical Twilight 4:50 AM CST 6:11 PM CST
Moon 3:36 AM CST (11/11) 3:04 PM CST (11/11)
Length of Visible Light 11h 21m
Length of Day
10h 28m
Waning Crescent, 7% of the Moon is Illuminated
Nov 11
Waning Crescent
Nov 13
New
Nov 20
First Quarter
Nov 28
Full
Dec 6
Last Quarter

Hourly Weather History & Observations

Time (CST) Temp. Dew Point Humidity Pressure Visibility Wind Dir Wind Speed Gust Speed Precip Events Conditions
12:35 AM 53.2 °F 38.1 °F 57% 30.27 in 10.0 mi SE 8.1 mph - N/A   Clear
12:55 AM 52.9 °F 37.9 °F 57% 30.27 in 10.0 mi SE 8.1 mph - N/A   Clear
1:15 AM 52.7 °F 37.8 °F 57% 30.26 in 10.0 mi SE 6.9 mph - N/A   Clear
1:35 AM 52.3 °F 37.6 °F 57% 30.25 in 10.0 mi SE 6.9 mph - N/A   Clear
1:55 AM 52.2 °F 37.4 °F 57% 30.24 in 10.0 mi SE 6.9 mph - N/A   Clear
2:15 AM 51.8 °F 37.4 °F 58% 30.26 in 10.0 mi SSE 6.9 mph - N/A   Clear
2:35 AM 50.9 °F 37.4 °F 60% 30.26 in 10.0 mi SE 6.9 mph - N/A   Clear
2:55 AM 50.9 °F 37.6 °F 60% 30.25 in 10.0 mi SE 8.1 mph - N/A   Clear
3:15 AM 51.1 °F 37.6 °F 60% 30.26 in 10.0 mi SE 5.8 mph - N/A   Clear
3:35 AM 51.1 °F 37.6 °F 60% 30.27 in 10.0 mi SE 4.6 mph - N/A   Clear
3:55 AM 50.7 °F 37.8 °F 61% 30.28 in 10.0 mi SE 5.8 mph - N/A   Clear
4:15 AM 49.8 °F 37.8 °F 63% 30.28 in 10.0 mi ESE 3.5 mph - N/A   Clear
4:35 AM 49.3 °F 37.9 °F 65% 30.29 in 10.0 mi ESE 6.9 mph - N/A   Clear
4:55 AM 49.1 °F 37.8 °F 65% 30.29 in 10.0 mi ESE 6.9 mph - N/A   Clear
5:35 AM 49.5 °F 37.8 °F 64% 30.29 in 10.0 mi ESE 8.1 mph - N/A   Clear
5:55 AM 48.9 °F 37.8 °F 65% 30.29 in 10.0 mi ESE 8.1 mph - N/A   Clear
6:15 AM 48.7 °F 37.9 °F 66% 30.30 in 10.0 mi ESE 8.1 mph - N/A   Clear
6:35 AM 49.1 °F 38.3 °F 66% 30.31 in 10.0 mi ESE 9.2 mph - N/A   Clear
6:55 AM 50.0 °F 38.7 °F 65% 30.31 in 10.0 mi ESE 8.1 mph - N/A   Clear
7:35 AM 51.4 °F 40.1 °F 65% 30.33 in 10.0 mi SE 6.9 mph - N/A   Clear
7:55 AM 52.9 °F 40.8 °F 64% 30.33 in 10.0 mi SE 6.9 mph - N/A   Clear
8:15 AM 54.9 °F 41.2 °F 60% 30.33 in 10.0 mi SE 5.8 mph - N/A   Clear
8:35 AM 56.3 °F 41.2 °F 57% 30.33 in 10.0 mi SE 6.9 mph - N/A   Clear
9:35 AM 59.0 °F 41.2 °F 52% 30.32 in 10.0 mi SE 5.8 mph - N/A   Clear
9:55 AM 62.4 °F 41.0 °F 45% 30.33 in 10.0 mi SSE 9.2 mph - N/A   Clear
10:15 AM 64.6 °F 40.1 °F 41% 30.32 in 10.0 mi SSE 10.4 mph 20.7 mph N/A   Clear
10:35 AM 64.2 °F 41.9 °F 44% 30.31 in 10.0 mi SSE 13.8 mph 20.7 mph N/A   Clear
10:55 AM 64.4 °F 44.4 °F 48% 30.31 in 10.0 mi SE 9.2 mph 16.1 mph N/A   Clear
11:15 AM 65.5 °F 46.8 °F 51% 30.30 in 10.0 mi SSE 12.7 mph 21.9 mph N/A   Clear
11:35 AM 65.1 °F 48.2 °F 54% 30.29 in 10.0 mi South 10.4 mph 23.0 mph N/A   Clear
11:55 AM 65.3 °F 48.4 °F 54% 30.28 in 10.0 mi SSE 11.5 mph 23.0 mph N/A   Clear
12:15 PM 65.8 °F 48.7 °F 54% 30.28 in 10.0 mi SSE 12.7 mph 19.6 mph N/A   Clear
12:35 PM 67.5 °F 49.3 °F 52% 30.26 in 10.0 mi SSE 11.5 mph 20.7 mph N/A   Clear
12:55 PM 67.5 °F 49.5 °F 52% 30.26 in 10.0 mi South 13.8 mph 24.2 mph N/A   Clear
1:15 PM 68.0 °F 49.6 °F 52% 30.25 in 10.0 mi SE 13.8 mph 23.0 mph N/A   Clear
1:35 PM 68.4 °F 50.2 °F 52% 30.23 in 10.0 mi SE 9.2 mph 24.2 mph N/A   Clear
1:55 PM 69.1 °F 50.5 °F 52% 30.24 in 10.0 mi South 16.1 mph 23.0 mph N/A   Clear
2:15 PM 68.9 °F 50.5 °F 52% 30.24 in 10.0 mi SSE 12.7 mph 19.6 mph N/A   Scattered Clouds
2:35 PM 69.6 °F 50.5 °F 51% 30.24 in 10.0 mi SSE 11.5 mph 18.4 mph N/A   Scattered Clouds
2:55 PM 69.1 °F 50.0 °F 51% 30.23 in 10.0 mi SSE 11.5 mph 18.4 mph N/A   Clear
3:15 PM 68.2 °F 50.0 °F 52% 30.23 in 10.0 mi SSE 10.4 mph 16.1 mph N/A   Clear
3:35 PM 67.3 °F 49.6 °F 53% 30.23 in 10.0 mi SSE 10.4 mph - N/A   Clear
3:55 PM 66.7 °F 49.3 °F 53% 30.23 in 10.0 mi SSE 6.9 mph 17.3 mph N/A   Clear
4:15 PM 65.5 °F 48.7 °F 55% 30.22 in 10.0 mi SSE 6.9 mph - N/A   Clear
4:35 PM 64.8 °F 49.1 °F 57% 30.23 in 10.0 mi SSE 6.9 mph - N/A   Clear
4:55 PM 64.0 °F 49.1 °F 58% 30.23 in 10.0 mi SSE 3.5 mph - N/A   Clear
5:15 PM 63.7 °F 49.1 °F 59% 30.23 in 10.0 mi SSE 6.9 mph - N/A   Clear
5:35 PM 63.5 °F 49.1 °F 59% 30.23 in 10.0 mi SSE 5.8 mph - N/A   Clear
5:55 PM 63.0 °F 49.1 °F 61% 30.23 in 10.0 mi SSE 8.1 mph - N/A   Clear
6:15 PM 62.6 °F 49.1 °F 61% 30.23 in 10.0 mi SE 8.1 mph - N/A   Clear
6:35 PM 62.8 °F 49.1 °F 61% 30.22 in 10.0 mi SE 10.4 mph 17.3 mph N/A   Clear
6:55 PM 62.8 °F 49.1 °F 61% 30.23 in 10.0 mi SSE 8.1 mph - N/A   Clear
7:15 PM 62.6 °F 49.3 °F 62% 30.23 in 10.0 mi SE 8.1 mph 16.1 mph N/A   Clear
7:35 PM 62.2 °F 49.3 °F 63% 30.23 in 10.0 mi SSE 9.2 mph - N/A   Clear
7:55 PM 62.1 °F 49.5 °F 63% 30.22 in 10.0 mi SSE 8.1 mph - N/A   Clear
8:15 PM 61.9 °F 49.5 °F 64% 30.21 in 10.0 mi SE 8.1 mph - N/A   Clear
8:35 PM 61.7 °F 49.5 °F 64% 30.21 in 10.0 mi SE 6.9 mph 16.1 mph N/A   Clear
8:55 PM 61.7 °F 49.5 °F 64% 30.22 in 10.0 mi SSE 9.2 mph - N/A   Clear
9:15 PM 61.7 °F 49.5 °F 64% 30.22 in 10.0 mi SE 8.1 mph - N/A   Clear
9:35 PM 61.3 °F 49.5 °F 65% 30.20 in 10.0 mi SE 9.2 mph - N/A   Clear
9:55 PM 61.2 °F 49.5 °F 65% 30.19 in 10.0 mi SE 8.1 mph - N/A   Clear
10:15 PM 61.2 °F 49.5 °F 65% 30.21 in 10.0 mi SSE 9.2 mph 16.1 mph N/A   Clear
10:35 PM 61.3 °F 49.6 °F 65% 30.20 in 10.0 mi SSE 11.5 mph 18.4 mph N/A   Clear
10:55 PM 61.3 °F 49.6 °F 65% 30.20 in 10.0 mi SSE 10.4 mph 16.1 mph N/A   Clear
11:15 PM 61.0 °F 49.6 °F 66% 30.19 in 10.0 mi SSE 11.5 mph 17.3 mph N/A   Clear
11:35 PM 60.8 °F 50.0 °F 68% 30.18 in 10.0 mi SSE 10.4 mph - N/A   Clear
11:55 PM 61.0 °F 50.0 °F 67% 30.18 in 10.0 mi SSE 8.1 mph - N/A   Clear